User: anonymous   Login
Location: Unspecified
(0.0000°N, 0.0000°E)
Time: 12:09:34
(UTC+00:00)
Language:

Mars Orbiter Mission - Orbit

View from above orbital plane
View from above orbital plane
View from above satellite
View from above satellite

Ground track
Ground track

The orbit data is extracted from the following two-line orbital elements,

1 39370U 13060A   13319.85296673 -.00001668  00000-0  00000+0 0  9996
2 39370 019.4167 122.9551 9306301 288.8779 002.1288 00.25833433   156
Epoch (UTC): 15 November 2013 20:28:16
Eccentricity: 0.9306301
inclination: 19.4167°
perigee height: 846 km
apogee height: 194674 km
right ascension of ascending node: 122.9551°
argument of perigee: 288.8779°
revolutions per day: 0.25833433
mean anomaly at epoch: 2.1288°
orbit number at epoch: 15

The dashed part of the orbit path shows where the satellite is in the earth's shadow,  

DLR